星链-34296 (STARLINK-34296)

导读 | 豆包AI

STARLINK-34296是美国于2025年6月5日发射的SpaceX星链卫星,归属星链星座网络,星链项目旨在构建全球卫星互联网,为全球多地提供宽带互联网接入服务,填补地面通信网络覆盖盲区,支持偏远地区通信、航海航空联网等场景,该卫星是星链扩张星座规模的其中一员。

基本信息
目录编号:
64216
目录名称:
STARLINK-34296
国际标识:
2025-117P
轨道中心:
EARTH
卫星名称:
星链-34296
卫星全名:
星链-34296 (STARLINK-34296)
卫星状态:
在轨 (已飞行287 天)
发射日期:
2025-05-31 UTC
国别 :
美国 (US)
星等 :
--
轨道信息
数据来源 国际轨道数据
星历时间: 2026-03-14T10:32:14+0800
14小时前
查看轨道信息
半长轴: 6853.29km
偏心率: 0.0001447
轨道倾角: 53.163°
近地点辐角 89.938°
升交点赤经 18.961°
平近点角 270.179°
近地点: 474.161km
远地点: 476.145km
周期: 94.104分钟
每日圈数: 15.302211
详细信息
固有亮度:
5
最大亮度:
2.5
卫星平台:
Starlink V1.0
覆盖范围:
全球
运营商:
太空探索技术公司
运营商所在国:
美国
制造商(研发单位):
太空探索技术公司
制造商所在国:
美国
使用方式:
暂无
卫星简介
Starlink 计划是 SpaceX 推出的全球卫星互联网项目,通过发射低轨道卫星,为全球尤其是偏远地区提供高速、低延迟的互联网服务。自 2019 年起,Starlink 已部署数千颗卫星,旨在缩小全球数字鸿沟,推动互联网普及。该项目还为军事、航空等行业提供通信支持,带来广泛经济效益。
2D轨道图
3D轨道图
轨道高度分析图
轨道倾角分析图
轨道综合分析图
查看轨道综合分析图